Minneapolis, MN

5:14 AM CST on November 21, 2017 (GMT -0600)
Minneapolis-Saint Paul International

Weather History for KMSP - November, 2012

Change the Weather History Date:

Friday, November 16, 2012

  Actual Average Record
Temperature  
Mean Temperature 34 °F 33 °F  
Max Temperature 44 °F 41 °F 68 °F (1953)
Min Temperature 23 °F 26 °F -2 °F (1933)
Degree Days  
Heating Degree Days 31 32  
Month to date heating degree days 407 437  
Since 1 July heating degree days 1067 1117  
Cooling Degree Days 0 0  
Month to date cooling degree days 0 0  
Year to date cooling degree days 1131 753  
Moisture  
Dew Point 18 °F    
Average Humidity 53    
Maximum Humidity 75    
Minimum Humidity 30    
Precipitation  
Precipitation 0.00 in 0.06 in 1.27 in (1996)
Month to date precipitation 0.59 0.97  
Year to date precipitation 27.91 28.65  
Snow  
Snow 0.00 in 0.30 in 10.50 in (1909)
Month to date snowfall 0.2 3.7  
Since 1 July snowfall 0.2 4.3  
Since 1 September snowfall 0.2 4.3  
Snow Depth 0.00 in    
Sea Level Pressure  
Sea Level Pressure 30.45 in    
Wind  
Wind Speed 5 mph (SE)    
Max Wind Speed 12 mph    
Max Gust Speed 14 mph    
Visibility 10 miles    
Events      
T = Trace of Precipitation, MM = Missing Value Source: NWS Daily Summary

Daily Weather History Graph

Daily Weather History Graph

Search for Another Location

Airport or City:

Trip Planner

Search our weather history database for the weather conditions in past years. The results will help you decide how hot, cold, wet, or windy it might be!

Date:

Astronomy

Nov. 16, 2012 Rise Set
Actual Time 7:12 AM CST 4:42 PM CST
Civil Twilight 6:40 AM CST 5:14 PM CST
Nautical Twilight 6:04 AM CST 5:50 PM CST
Astronomical Twilight 5:30 AM CST 6:24 PM CST
Moon 10:09 AM CST (11/16) 7:41 PM CST (11/16)
Length of Visible Light 10h 34m
Length of Day
9h 30m
Waxing Crescent, 12% of the Moon is Illuminated
Nov 16
Waxing Crescent
Nov 20
First Quarter
Nov 28
Full
Dec 6
Last Quarter
Dec 13
New

Hourly Weather History & Observations

Time (CST) Temp. Windchill Dew Point Humidity Pressure Visibility Wind Dir Wind Speed Gust Speed Precip Events Conditions
12:53 AM 28.0 °F 20.8 °F 10.9 °F 49% 30.50 in 10.0 mi North 6.9 mph - N/A   Clear
1:53 AM 26.1 °F 20.5 °F 10.9 °F 53% 30.51 in 10.0 mi North 4.6 mph - N/A   Clear
2:53 AM 26.1 °F - 10.9 °F 53% 30.52 in 10.0 mi Calm Calm - N/A   Clear
3:53 AM 25.0 °F 20.7 °F 12.0 °F 58% 30.51 in 10.0 mi North 3.5 mph - N/A   Clear
4:53 AM 24.1 °F 19.7 °F 12.0 °F 60% 30.51 in 10.0 mi North 3.5 mph - N/A   Clear
5:53 AM 24.1 °F - 12.0 °F 60% 30.50 in 10.0 mi Calm Calm - N/A   Clear
6:53 AM 23.0 °F 18.4 °F 12.9 °F 65% 30.50 in 10.0 mi Variable 3.5 mph - N/A   Clear
7:53 AM 25.0 °F - 14.0 °F 63% 30.51 in 10.0 mi Calm Calm - N/A   Partly Cloudy
8:53 AM 28.0 °F 22.8 °F 15.1 °F 58% 30.52 in 10.0 mi ESE 4.6 mph - N/A   Partly Cloudy
9:53 AM 30.9 °F 25.2 °F 17.1 °F 57% 30.52 in 10.0 mi SE 5.8 mph - N/A   Partly Cloudy
10:53 AM 36.0 °F 31.1 °F 19.9 °F 52% 30.52 in 10.0 mi South 5.8 mph - N/A   Partly Cloudy
11:53 AM 39.0 °F 35.7 °F 19.0 °F 45% 30.49 in 10.0 mi SSE 4.6 mph - N/A   Partly Cloudy
12:53 PM 41.0 °F - 17.1 °F 38% 30.48 in 10.0 mi Calm Calm - N/A   Scattered Clouds
1:53 PM 43.0 °F 39.5 °F 14.0 °F 31% 30.45 in 10.0 mi South 5.8 mph - N/A   Scattered Clouds
2:53 PM 43.0 °F 37.7 °F 15.1 °F 32% 30.43 in 10.0 mi SE 9.2 mph - N/A   Scattered Clouds
3:53 PM 42.1 °F 37.7 °F 19.0 °F 40% 30.41 in 10.0 mi SE 6.9 mph - N/A   Scattered Clouds
4:53 PM 39.0 °F 34.8 °F 19.9 °F 46% 30.40 in 10.0 mi SE 5.8 mph - N/A   Scattered Clouds
5:53 PM 37.9 °F 32.7 °F 21.0 °F 51% 30.39 in 10.0 mi SE 6.9 mph - N/A   Partly Cloudy
6:53 PM 37.0 °F 32.4 °F 21.0 °F 52% 30.39 in 10.0 mi SE 5.8 mph - N/A   Partly Cloudy
7:53 PM 36.0 °F 32.1 °F 23.0 °F 59% 30.38 in 10.0 mi Variable 4.6 mph - N/A   Partly Cloudy
8:53 PM 35.1 °F 29.3 °F 24.1 °F 64% 30.37 in 10.0 mi SSE 6.9 mph - N/A   Partly Cloudy
9:53 PM 34.0 °F 28.8 °F 24.1 °F 67% 30.36 in 10.0 mi SE 5.8 mph - N/A   Clear
10:53 PM 34.0 °F 28.8 °F 26.1 °F 73% 30.36 in 10.0 mi SE 5.8 mph - N/A   Clear
11:53 PM 34.0 °F 27.2 °F 27.0 °F 75% 30.35 in 9.0 mi SE 8.1 mph - N/A   Clear